sat.trackr.live / text

‹ back to catalog

STARLINK-34634

NORAD 65079 · 2025-167B

PAYLOAD ACTIVE UNKNOWN

§ Identity

Operator
Country
US
Launch date
2025-08-04
Launch site
AFETR
Launch vehicle
Mass (kg)
RCS (m²)

Purposes: comms

External: N2YO · Heavens-Above · Gunter

§ Orbital elements

Epoch: 2026-09-20T22:22:46.121664Z

Period
93.85 min
Inclination
53.1580°
Eccentricity
0.0001147
Mean motion
15.34445022 rev/d
Perigee alt
461.8 km
Apogee alt
463.4 km
Semi-major
6,840.7 km
B*
6.2599e-4
RAAN
193.3555°
Arg perigee
91.1265°
Mean anomaly
268.9869°
Rev number
6,346

§ Raw data

STARLINK-346341 65079U 25167B   26263.93247826  .00020863  00000+0  62599-3 0  99902 65079  53.1580 193.3555 0001147  91.1265 268.9869 15.34445022 63466

JSON: /api/v1/satellites/65079 · /tle

For live sub-satellite position, see the globe view (requires WebGL).

§ Visibility from observer

Set your observer location to see the next 7 days of passes ≥ 10°. The values pass through the URL so the page stays shareable.

No JS? Fill the form by hand. The geolocation button needs JavaScript.